Location: Mahannah Oil Field
(37.4664°N, 96.6003°W)
Time: 16:38:47
(UTC+00:00)

Vanguard 2 Rocket - Pass Details

Date: 26 June 2021
Orbit: 554 x 3325 km, 32.9° (Epoch: 24 July)

Event Time Altitude Azimuth Distance (km) Brightness Sun altitude
Rises 02:40:26 0° 268° (W) 7,222 12.3 -8.8°
Reaches altitude 10° 02:45:13 10° 268° (W) 6,274 11.9 -9.6°
Maximum altitude 03:05:34 75° 188° (S) 3,007 9.4 -12.6°
Enters shadow 03:19:43 11° 106° (ESE) 4,594 10.0 -14.6°
